Weather History for Dunkirk, NY

Change the Weather History Date:

Monday, February 3, 2014

  Actual Average Record
Temperature  
Mean Temperature 16 °F -  
Max Temperature 24 °F 32 °F 56 °F (1991)
Min Temperature 9 °F 19 °F -5 °F (1936)
Degree Days  
Heating Degree Days 48    
Moisture  
Dew Point 15 °F    
Average Humidity 82    
Maximum Humidity 89    
Minimum Humidity 60    
Precipitation  
Precipitation 0.00 in - - ()
Sea Level Pressure  
Sea Level Pressure 30.28 in    
Wind  
Wind Speed 7 mph (NNE)    
Max Wind Speed 14 mph    
Max Gust Speed 18 mph    
Visibility 7 miles    
Events Snow    
Averages and records for this station are not official NWS values.
T = Trace of Precipitation, MM = Missing Value Source: NWS Daily Summary

Daily Weather History Graph

Daily Weather History Graph

Search for Another Location

Airport:

Trip Planner

Search our weather history database for the weather conditions in past years. The results will help you decide how hot, cold, wet, or windy it might be!

Date:

Astronomy

Feb. 03, 2014 Rise Set
Actual Time 7:28 AM EST 5:33 PM EST
Civil Twilight 6:59 AM EST 6:03 PM EST
Nautical Twilight 6:25 AM EST 6:36 PM EST
Astronomical Twilight 5:52 AM EST 7:09 PM EST
Moon 9:23 AM EST (2/3) 10:29 PM EST (2/3)
Length of Visible Light 11h 04m
Length of Day
10h 04m
Waxing Crescent, 19% of the Moon is Illuminated
Feb 3
Waxing Crescent
Feb 6
First Quarter
Feb 14
Full
Feb 22
Last Quarter
Mar 1
New

Hourly Weather History & Observations

Time (EST) Temp. Windchill Dew Point Humidity Pressure Visibility Wind Dir Wind Speed Gust Speed Precip Events Conditions
12:53 AM 21.9 °F 14.5 °F 15.1 °F 75% 30.25 in 10.0 mi NW 5.8 mph - N/A   Overcast
1:53 AM 21.9 °F 14.5 °F 16.0 °F 78% 30.25 in 10.0 mi NW 5.8 mph - N/A   Overcast
2:53 AM 21.9 °F 15.7 °F 16.0 °F 78% 30.26 in 8.0 mi North 4.6 mph - N/A   Overcast
3:53 AM 21.9 °F 14.5 °F 16.0 °F 78% 30.25 in 10.0 mi North 5.8 mph - N/A   Overcast
4:53 AM 21.9 °F 15.7 °F 16.0 °F 78% 30.24 in 9.0 mi North 4.6 mph - N/A   Overcast
5:53 AM 21.9 °F 14.5 °F 16.0 °F 78% 30.25 in 10.0 mi North 5.8 mph - 0.00 in   Overcast
6:34 AM 21.2 °F 14.9 °F 17.6 °F 86% 30.19 in 9.0 mi NNE 4.6 mph - N/A   Overcast
6:53 AM 21.9 °F 14.5 °F 17.1 °F 82% 30.24 in 7.0 mi NNE 5.8 mph - N/A   Overcast
7:53 AM 21.9 °F 12.5 °F 18.0 °F 85% 30.26 in 4.0 mi North 8.1 mph - 0.00 in Snow Light Snow
8:29 AM 21.2 °F 14.9 °F 17.6 °F 86% 30.25 in 2.5 mi North 4.6 mph - 0.00 in Snow Light Snow
8:53 AM 21.9 °F 15.7 °F 19.0 °F 89% 30.28 in 2.0 mi North 4.6 mph - 0.00 in Snow Light Snow
9:26 AM 21.2 °F 10.1 °F 17.6 °F 86% 30.25 in 2.5 mi NNE 10.4 mph - 0.00 in Snow Light Snow
9:40 AM 21.2 °F 8.9 °F 17.6 °F 86% 30.25 in 1.8 mi NNE 12.7 mph 17.3 mph 0.00 in Snow Light Snow
9:46 AM 21.2 °F 11.7 °F 17.6 °F 86% 30.26 in 2.0 mi NE 8.1 mph - 0.00 in Snow Light Snow
9:53 AM 21.9 °F 9.8 °F 18.0 °F 85% 30.30 in 1.5 mi NNE 12.7 mph 18.4 mph 0.00 in Snow Light Snow
10:11 AM 21.2 °F 10.1 °F 17.6 °F 86% 30.27 in 2.5 mi NE 10.4 mph - 0.00 in Snow Light Snow
10:25 AM 21.2 °F 10.1 °F 17.6 °F 86% 30.27 in 2.0 mi NNE 10.4 mph - 0.00 in Snow Light Snow
10:32 AM 23.0 °F 11.1 °F 17.6 °F 80% 30.27 in 2.5 mi NNE 12.7 mph - 0.00 in Snow Light Snow
10:42 AM 21.2 °F 8.3 °F 17.6 °F 86% 30.28 in 3.0 mi NNE 13.8 mph - 0.00 in Snow Light Snow
10:49 AM 21.2 °F 8.3 °F 17.6 °F 86% 30.27 in 2.5 mi NNE 13.8 mph - 0.00 in Snow Light Snow
10:53 AM 21.9 °F 9.2 °F 16.0 °F 78% 30.31 in 3.0 mi NNE 13.8 mph - 0.00 in Snow Light Snow
12:53 PM 23.0 °F 12.4 °F 15.1 °F 72% 30.27 in 10.0 mi NNE 10.4 mph - N/A   Unknown
1:53 PM - - - N/A% 30.27 in - North - - N/A   Unknown
2:53 PM 24.1 °F 17.0 °F 12.0 °F 60% 30.27 in 10.0 mi North 5.8 mph - N/A   Unknown
3:53 PM 24.1 °F 16.0 °F 12.9 °F 62% 30.29 in 10.0 mi NNW 6.9 mph - N/A   Clear
5:53 PM 19.9 °F - 12.9 °F 74% 30.32 in 10.0 mi Calm Calm - N/A   Clear
6:53 PM 15.1 °F - 12.0 °F 88% 30.35 in 10.0 mi Calm Calm - N/A   Clear
7:53 PM 12.0 °F 5.9 °F 9.0 °F 88% 30.35 in 10.0 mi South 3.5 mph - N/A   Clear
8:53 PM 10.0 °F 1.8 °F 7.0 °F 87% 30.35 in 10.0 mi South 4.6 mph - N/A   Clear
9:53 PM 9.0 °F 2.4 °F 6.1 °F 88% 30.35 in 10.0 mi South 3.5 mph - N/A   Clear
10:53 PM 9.0 °F 2.4 °F 5.0 °F 84% 30.37 in 10.0 mi SSW 3.5 mph - N/A   Clear
11:53 PM 9.0 °F 0.6 °F 6.1 °F 88% 30.37 in 10.0 mi South 4.6 mph - N/A   Clear